Etusivu
METAR-TAF:

METAR-TAF

Lentoasemat :

Spencer Municipal Airport

Spencer, Iowa, Yhdysvallat

Leveyspiiri: 43-09-56N, Pituuspiiri: 095-12-10W, korkeus merenpinnasta: 408 m

Tämänhetkinen sää

Tämä raportti tehtiin 40 minuuttia sitten, kello 18.53 UTC
Tuuli 8 kn luoteesta
Lämpötila -2°C
Kosteus 63%
Ilmanpaine 1026 hPa
Näkyvyys: 16.1 km
selkeää

METAR: KSPW 261853Z AUTO 32008KT 10SM CLR M02/M08 A3031 RMK AO2 SLP284 T10221083

Aika: 13:33 (19:33 UTC)


TAF: puuttuu

Säähavainnot ja -ennusteet yli 4000 lentoasemalta (METAR- ja TAF-raportit).

Käytössä olevat sääasemat on merkitty karttaan keltaisilla ja punaisilla pisteillä.

Aseta hiiri pisteen päälle nähdäksesi sääaseman nimen.

Klikkaa sitten nähdäksesi säähavainnot ja -ennusteet.

Kartan vaihtaminen: klikkaa mustalla rastilla varustettuja vihreitä pisteitä, niin voit zoomata sisään; viivalla varustettua vihreää pistettä, niin voit zoomata ulos tai vihreitä nuolia, niin pääset viereisille kartoille.


METAR-TAF: